Home   Weather   Kelowna   Past weeks

Flag for Canada Past Weather in Kelowna, British Columbia, Canada — Yesterday and Last 2 Weeks

46 °F

Partly cloudy.

Feels Like: 45 °F
Forecast: 46 / 55 °F
Wind: 3 mph from East

Location: Kelowna Airport

Current Time: Oct 27, 2016 at 7:51:00 AM

Latest Report: Oct 27, 2016 at 7:00 AM

Visibility: 9 mi

Pressure: 29.83 "Hg

Humidity: 93%

Dew Point: 45 °F

Location of KelownaLocation

Past Weather in Kelowna — Graph


Kelowna Temperature Yesterday

Maximum temperature yesterday: 46 °F (at 1:00 PM)
Minimum temperature yesterday: 37 °F (at 6:00 AM)
Average temperature yesterday: 44 °F

High & Low Weather Summary for the Past Weeks

High59 °F (Oct 14, 4:00 PM)100% (Oct 12, 6:00 AM)30.35 "Hg (Oct 12, 6:00 AM)
Low25 °F (Oct 12, 6:00 AM)44% (Oct 12, 3:00 PM)29.24 "Hg (Oct 14, 3:00 AM)
Average47 °F82%29.84 "Hg
* Reported Oct 12 6:00 AM — Oct 27 6:00 AM, Kelowna, Weather by CustomWeather, © 2016

Note: Actual official high and low records may vary slightly from our data, if they occured in-between our weather recording intervals... More about our weather records


Kelowna Weather History for the Previous 24 Hours

Scroll right to see more
Time TempWeatherWind HumidityBarometerVisibility
6:00 AM
Thu, Oct 27
46 °FLow clouds.2 mph93%29.83 "Hg9 mi
5:00 AM46 °FFog.3 mph93%29.82 "Hg4 mi
4:00 AM45 °FFog.2 mph100%29.84 "Hg4 mi
3:00 AM46 °FLight rain. Fog.3 mph93%29.86 "Hg4 mi
2:00 AM46 °FLight rain. Fog.2 mph93%29.88 "Hg4 mi
1:00 AM45 °FRain. Fog.2 mph100%29.88 "Hg3 mi
12:52 AM45 °FLight rain. Fog.2 mph100%29.88 "Hg3 mi
12:00 AM45 °FLight rain. Fog.No wind100%29.88 "Hg4 mi
11:00 PM
Wed, Oct 26
45 °FLight rain. Fog.No wind100%29.90 "Hg4 mi
10:00 PM45 °FLight rain. Fog.2 mph100%29.90 "Hg4 mi
9:59 PM45 °FLight rain. Fog.2 mph100%29.90 "Hg4 mi
9:00 PM45 °FLight rain. Mostly cloudy.2 mph100%29.91 "Hg7 mi
8:58 PM45 °FLight rain. Mostly cloudy.2 mph100%29.91 "Hg7 mi
8:00 PM45 °FLight rain. Fog.2 mph100%29.92 "Hg6 mi
7:04 PM46 °FLight rain. Fog.3 mph93%29.94 "Hg6 mi
6:53 PM45 °FLight rain. Fog.2 mph100%29.94 "Hg5 mi
6:00 PM46 °FLight rain. Passing clouds.2 mph93%29.95 "Hg9 mi
5:00 PM46 °FLight rain. Scattered clouds.2 mph87%29.95 "Hg9 mi
4:00 PM46 °FLight rain. Partly sunny.No wind87%29.96 "Hg9 mi
3:00 PM46 °FLight rain. Passing clouds.6 mph93%29.96 "Hg9 mi
2:00 PM45 °FLight rain. Partly sunny.2 mph93%29.98 "Hg9 mi
1:00 PM46 °FLight rain. Passing clouds.2 mph87%30.01 "Hg9 mi
12:00 PM45 °FLight rain. Sunny.6 mph93%30.01 "Hg9 mi
11:00 AM45 °FLight rain. Passing clouds.No wind93%30.04 "Hg9 mi
10:00 AM45 °FPassing clouds.3 mph93%30.04 "Hg9 mi
9:00 AM45 °FScattered clouds.5 mph87%30.04 "Hg9 mi
8:00 AM43 °FSunny.3 mph93%30.05 "Hg9 mi
7:00 AM43 °FClear.5 mph87%30.04 "Hg9 mi
Weather by CustomWeather, © 2016

See weather overviewHow to use our weather pages